Regional Weather Roundup
Issued by NWS

Home | Current Version | Previous Version | Text Only | Print | Product List | Glossary On
Versions: 1 2 3 4 5 6 7 8 9 10 11 12 13 14 15 16 17 18 19 20 21 22 23 24 25 26 27 28 29 30 31 32 33 34 35 36 37 38 39 40 41 42 43 44 45 46 47 48 49 50
000
ASUS43 KTOP 211308
RWRKS

WEATHER ROUNDUP FOR KANSAS
NATIONAL WEATHER SERVICE GOODLAND KS
800 AM CDT SAT APR 21 2018

NOTE:  "FAIR" INDICATES FEW OR NO CLOUDS BELOW 12,000 FEET WITH NO
SIGNIFICANT WEATHER AND/OR OBSTRUCTIONS TO VISIBILITY.

KSZ001>006-013>018-027>032-041>047-211400-
NORTHWEST KANSAS

CITY           SKY/WX    TMP DP  RH WIND       PRES   REMARKS
GOODLAND       CLOUDY    37  36  96 E12       30.14S WCI  29
HAYS           LGT RAIN  43  41  93 NE14      30.16S
HILL CITY      CLOUDY    42  41  96 NE13      30.20R
RUSSELL        LGT RAIN  44  44 100 NE13      30.15F
$$

KSZ061>065-074>080-084>089-211400-
SOUTHWEST KANSAS

CITY           SKY/WX    TMP DP  RH WIND       PRES   REMARKS
DODGE CITY     CLOUDY    44  41  89 NE8       30.10R FOG
ELKHART        CLOUDY    44  44 100 NE8       30.08R FOG
GREAT BEND     LGT RAIN  45  42  89 E12       30.14R
LIBERAL        LGT RAIN  43  43 100 NE9       30.08R VSB 1/4
PRATT          CLOUDY   N/A N/A N/A E8        30.11R
$$

KSZ066>073-081>083-090>101-211400-
SOUTHEAST KANSAS

CITY           SKY/WX    TMP DP  RH WIND       PRES   REMARKS
CHANUTE        CLOUDY    48  42  80 NE6       30.19F
COFFEYVILLE    CLOUDY    51  39  63 N5        30.17F
HUTCHINSON     CLOUDY    46  45  96 E10       30.13R
MEDICINE LODGE   N/A     46  44  93 E8G22     30.08R
NEWTON         LGT RAIN  44  42  93 E14       30.13F
PARSONS        CLOUDY    53  35  50 NE3       30.19S
WICHITA INTL   LGT RAIN  47  46  97 SE17      30.12R FOG
WICHITA JABRA  LGT RAIN  45  45 100 E10       30.13F
WICHITA MCCONL LGT RAIN  46  45  95 SE7       30.14R
WINFIELD       LGT RAIN  47  45  93 E14G21    30.12F
$$

KSZ007>012-019>026-033>040-048>060-102>105-211400-
NORTHEAST KANSAS

CITY           SKY/WX    TMP DP  RH WIND       PRES   REMARKS
CONCORDIA      LGT RAIN  44  39  82 E10       30.21S
EMPORIA        CLOUDY    45  40  82 E9        30.18F
LAWRENCE       LGT RAIN  48  33  56 E7        30.25R
MANHATTAN      LGT RAIN  46  42  86 NE8       30.22R
MARYSVILLE     LGT RAIN  43  37  81 E7        30.27R
OLATHE IND     LGT RAIN  50  30  46 NE5       30.25R
OLATHE EXE     CLOUDY    49  28  44 NE9       30.23R
SALINA         CLOUDY    47  43  86 E9        30.18R
TOPEKA BILLARD CLOUDY    48  41  76 E3        30.24F
TOPEKA FORBES  LGT RAIN  47  41  80 E5        30.24R
$$




USA.gov is the U.S. government's official web portal to all federal, state and local government web resources and services.